User: anonymous   Login
Location: Treviso
(45.6669°N, 12.2430°E)
Time: 06:14:22
(UTC+01:00)
Language:

DELFI C3 - Orbit

View from above orbital plane
View from above orbital plane
View from above satellite
View from above satellite

Ground track
Ground track

The orbit data is extracted from the following two-line orbital elements,

1 32789U 08021G   19315.42201703  .00001327  00000-0  91968-4 0  9998
2 32789  97.4481   0.5800 0011723 353.9790   6.1296 15.07242423628917
Epoch (UTC): 11 November 2019 10:07:42
Eccentricity: 0.0011723
inclination: 97.4481°
perigee height: 536 km
apogee height: 553 km
right ascension of ascending node: 0.5800°
argument of perigee: 353.9790°
revolutions per day: 15.07242423
mean anomaly at epoch: 6.1296°
orbit number at epoch: 62891

The dashed part of the orbit path shows where the satellite is in the earth's shadow,  

DLR